Weather History for KMLU - September, 2013

Change the Weather History Date:

Wednesday, September 25, 2013

  Actual Average Record
Temperature  
Mean Temperature 76 °F 74 °F  
Max Temperature 87 °F 86 °F 101 °F (1931)
Min Temperature 64 °F 61 °F 46 °F (1975)
Degree Days  
Heating Degree Days 0 0  
Month to date heating degree days 0 0  
Since 1 July heating degree days 0 0  
Cooling Degree Days 11 9  
Month to date cooling degree days 399 319  
Year to date cooling degree days 2244 2326  
Growing Degree Days 25 (Base 50)    
Moisture  
Dew Point 60 °F    
Average Humidity 65    
Maximum Humidity 93    
Minimum Humidity 37    
Precipitation  
Precipitation 0.00 in 0.13 in 2.14 in (1985)
Month to date precipitation 2.17 2.97  
Year to date precipitation 34.45 38.45  
Snow  
Snow 0.00 in - - ()
Month to date snowfall 0.0  
Since 1 July snowfall 0.0  
Since 1 September snowfall 0.0  
Snow Depth 0.00 in    
Sea Level Pressure  
Sea Level Pressure 29.83 in    
Wind  
Wind Speed 4 mph (NNW)    
Max Wind Speed 15 mph    
Max Gust Speed 20 mph    
Visibility 10 miles    
Events      
T = Trace of Precipitation, MM = Missing Value Source: NWS Daily Summary

Daily Weather History Graph

Daily Weather History Graph

Search for Another Location

Airport or City:

Trip Planner

Search our weather history database for the weather conditions in past years. The results will help you decide how hot, cold, wet, or windy it might be!

Date:

Astronomy

Sep. 25, 2013 Rise Set
Actual Time 6:58 AM CDT 7:00 PM CDT
Civil Twilight 6:33 AM CDT 7:24 PM CDT
Nautical Twilight 6:05 AM CDT 7:53 PM CDT
Astronomical Twilight 5:36 AM CDT 8:22 PM CDT
Moon 11:24 PM CDT (9/25) 12:47 PM CDT (9/25)
Length of Visible Light 12h 51m
Length of Day
12h 02m
Waning Gibbous, 64% of the Moon is Illuminated
Sep 25
Waning Gibbous
Sep 26
Last Quarter
Oct 4
New
Oct 11
First Quarter
Oct 18
Full

Hourly Weather History & Observations

Time (CDT) Temp. Heat Index Dew Point Humidity Pressure Visibility Wind Dir Wind Speed Gust Speed Precip Events Conditions
12:53 AM 66.0 °F - 64.0 °F 93% 29.81 in 9.0 mi Calm Calm - N/A   Clear
1:53 AM 66.0 °F - 64.0 °F 93% 29.81 in 10.0 mi Calm Calm - N/A   Clear
2:53 AM 68.0 °F - 63.0 °F 84% 29.81 in 10.0 mi Calm Calm - N/A   Clear
3:53 AM 66.0 °F - 63.0 °F 90% 29.81 in 10.0 mi Calm Calm - 0.01 in   Clear
4:53 AM 66.0 °F - 62.1 °F 87% 29.81 in 10.0 mi Calm Calm - N/A   Clear
5:53 AM 64.9 °F - 60.1 °F 84% - 10.0 mi Calm Calm - N/A   Clear
6:53 AM 64.0 °F - 57.9 °F 80% 29.83 in 10.0 mi NNW 3.5 mph - N/A   Clear
7:53 AM 66.0 °F - 60.1 °F 81% 29.86 in 10.0 mi NW 3.5 mph - N/A   Clear
8:53 AM 71.1 °F - 60.1 °F 68% 29.86 in 10.0 mi NNW 6.9 mph - N/A   Clear
9:53 AM 77.0 °F - 59.0 °F 54% 29.87 in 10.0 mi North 9.2 mph - N/A   Clear
10:53 AM 81.0 °F 81.6 °F 60.1 °F 49% 29.87 in 10.0 mi North 6.9 mph - N/A   Clear
11:53 AM 84.0 °F 83.5 °F 57.9 °F 41% 29.86 in 10.0 mi NNW 10.4 mph 16.1 mph N/A   Clear
12:53 PM 84.9 °F 83.9 °F 57.0 °F 38% 29.84 in 10.0 mi North 10.4 mph 16.1 mph N/A   Clear
1:53 PM 84.9 °F 84.2 °F 57.9 °F 40% 29.82 in 10.0 mi North 9.2 mph - N/A   Clear
2:53 PM 86.0 °F 85.4 °F 59.0 °F 40% 29.81 in 10.0 mi NW 8.1 mph - N/A   Clear
3:53 PM 86.0 °F 85.4 °F 59.0 °F 40% 29.80 in 10.0 mi Variable 6.9 mph - N/A   Clear
4:53 PM 86.0 °F 85.0 °F 57.9 °F 38% 29.80 in 10.0 mi West 10.4 mph - N/A   Clear
5:53 PM 84.9 °F 84.2 °F 57.9 °F 40% 29.80 in 10.0 mi NW 6.9 mph - N/A   Clear
6:53 PM 79.0 °F - 61.0 °F 54% 29.81 in 10.0 mi Calm Calm - N/A   Clear
7:53 PM 73.0 °F - 62.1 °F 68% 29.81 in 10.0 mi Calm Calm - N/A   Clear
8:53 PM 70.0 °F - 62.1 °F 76% 29.83 in 10.0 mi Calm Calm - N/A   Clear
9:53 PM 66.0 °F - 62.1 °F 87% 29.84 in 10.0 mi Calm Calm - N/A   Clear
10:53 PM 64.9 °F - 61.0 °F 87% 29.85 in 10.0 mi Calm Calm - N/A   Clear
11:53 PM 64.9 °F - 61.0 °F 87% 29.85 in 10.0 mi Calm Calm - N/A   Clear